QPF
0.09 0.11 0.12 0.13 0.14 0.14 0.13 0.12 0.12 0.10 0.08 0.07 0.05 0.04 0.03 0.02 0.04 0.05 0.05 0.03 0.03 0.05 0.10 0.16 0.18 0.16 0.14 0.13 0.15 0.15 0.12 0.10 0.08 0.08 0.07 0.05 0.05 0.05 0.04 0.04 0.03 0.03 0.03
0.08 0.10 0.11 0.13 0.15 0.14 0.14 0.13 0.12 0.12 0.10 0.08 0.06 0.07 0.07 0.06 0.07 0.08 0.07 0.07 0.04 0.05 0.08 0.13 0.15 0.15 0.16 0.17 0.16 0.16 0.14 0.12 0.10 0.09 0.08 0.07 0.07 0.06 0.05 0.04 0.05 0.04 0.04
0.07 0.08 0.10 0.11 0.12 0.11 0.10 0.12 0.11 0.10 0.08 0.08 0.08 0.10 0.11 0.09 0.08 0.09 0.09 0.10 0.08 0.06 0.06 0.08 0.11 0.13 0.15 0.18 0.18 0.16 0.15 0.13 0.12 0.11 0.10 0.10 0.09 0.08 0.08 0.06 0.06 0.06 0.06
0.06 0.07 0.08 0.09 0.11 0.10 0.08 0.11 0.11 0.09 0.09 0.09 0.09 0.08 0.09 0.09 0.09 0.08 0.08 0.09 0.10 0.08 0.07 0.06 0.08 0.08 0.11 0.15 0.15 0.18 0.18 0.15 0.12 0.11 0.11 0.10 0.09 0.08 0.08 0.08 0.07 0.07 0.07
0.06 0.07 0.07 0.09 0.10 0.10 0.10 0.09 0.09 0.11 0.11 0.11 0.08 0.07 0.07 0.07 0.09 0.08 0.07 0.07 0.08 0.09 0.08 0.08 0.07 0.07 0.09 0.11 0.13 0.16 0.17 0.17 0.16 0.14 0.12 0.10 0.09 0.09 0.10 0.10 0.09 0.08 0.07
0.09 0.09 0.08 0.09 0.11 0.11 0.11 0.12 0.11 0.12 0.12 0.12 0.10 0.10 0.08 0.07 0.07 0.06 0.06 0.05 0.05 0.06 0.08 0.09 0.10 0.07 0.07 0.10 0.12 0.13 0.15 0.18 0.19 0.17 0.15 0.13 0.12 0.12 0.13 0.13 0.10 0.07 0.05
0.07 0.10 0.11 0.11 0.11 0.13 0.13 0.13 0.12 0.12 0.12 0.12 0.13 0.14 0.11 0.08 0.06 0.04 0.05 0.05 0.04 0.04 0.06 0.07 0.08 0.09 0.09 0.08 0.07 0.08 0.11 0.14 0.18 0.19 0.18 0.18 0.18 0.18 0.16 0.15 0.11 0.07 0.05
0.06 0.06 0.08 0.11 0.10 0.12 0.13 0.14 0.14 0.14 0.13 0.14 0.18 0.18 0.14 0.11 0.08 0.05 0.04 0.05 0.06 0.06 0.05 0.04 0.04 0.06 0.06 0.07 0.06 0.04 0.06 0.09 0.14 0.18 0.18 0.19 0.21 0.20 0.17 0.14 0.11 0.08 0.05
0.03 0.04 0.05 0.06 0.08 0.11 0.13 0.14 0.16 0.16 0.14 0.13 0.14 0.16 0.16 0.14 0.10 0.07 0.05 0.04 0.04 0.04 0.04 0.03 0.03 0.04 0.05 0.07 0.07 0.04 0.03 0.05 0.09 0.14 0.15 0.15 0.16 0.16 0.16 0.15 0.13 0.09 0.06
0.03 0.02 0.02 0.03 0.04 0.06 0.10 0.11 0.11 0.11 0.12 0.13 0.13 0.13 0.13 0.13 0.12 0.10 0.06 0.04 0.03 0.03 0.04 0.04 0.03 0.04 0.05 0.07 0.07 0.04 0.02 0.03 0.06 0.10 0.12 0.11 0.11 0.10 0.10 0.10 0.10 0.08 0.08
0.01 0.01 0.02 0.02 0.02 0.03 0.04 0.06 0.07 0.07 0.07 0.09 0.10 0.10 0.10 0.10 0.11 0.11 0.09 0.06 0.04 0.03 0.03 0.04 0.05 0.05 0.05 0.06 0.07 0.06 0.03 0.03 0.05 0.07 0.09 0.09 0.08 0.08 0.08 0.09 0.10 0.09 0.09
0.01 0.01 0.01 0.01 0.02 0.03 0.04 0.05 0.04 0.05 0.06 0.07 0.09 0.09 0.09 0.10 0.10 0.11 0.10 0.08 0.06 0.03 0.03 0.03 0.03 0.04 0.04 0.04 0.04 0.05 0.04 0.04 0.07 0.07 0.07 0.07 0.07 0.07 0.07 0.08 0.09 0.08 0.07
0.02 0.02 0.03 0.03 0.03 0.03 0.04 0.03 0.03 0.02 0.03 0.03 0.05 0.07 0.08 0.08 0.08 0.08 0.08 0.08 0.06 0.05 0.03 0.02 0.02 0.02 0.02 0.03 0.04 0.04 0.04 0.05 0.06 0.05 0.05 0.05 0.05 0.05 0.06 0.07 0.09 0.09 0.08
0.03 0.02 0.02 0.03 0.04 0.05 0.04 0.03 0.03 0.02 0.02 0.02 0.02 0.04 0.06 0.05 0.05 0.06 0.07 0.08 0.06 0.03 0.03 0.03 0.03 0.03 0.02 0.03 0.04 0.05 0.06 0.06 0.03 0.02 0.03 0.03 0.04 0.04 0.05 0.06 0.08 0.13 0.14
0.03 0.02 0.02 0.02 0.03 0.04 0.03 0.03 0.03 0.02 0.02 0.02 0.02 0.02 0.03 0.04 0.04 0.05 0.07 0.08 0.07 0.05 0.04 0.03 0.03 0.03 0.03 0.03 0.03 0.03 0.04 0.05 0.04 0.02 0.02 0.02 0.03 0.04 0.06 0.08 0.10 0.13 0.13
0.03 0.02 0.02 0.02 0.02 0.02 0.02 0.03 0.03 0.02 0.02 0.03 0.02 0.02 0.02 0.02 0.02 0.03 0.04 0.05 0.06 0.05 0.05 0.04 0.04 0.03 0.04 0.04 0.03 0.03 0.03 0.04 0.05 0.04 0.03 0.03 0.04 0.06 0.08 0.10 0.12 0.12 0.10
0.03 0.02 0.02 0.02 0.02 0.02 0.02 0.02 0.03 0.02 0.02 0.02 0.02 0.02 0.02 0.02 0.02 0.02 0.02 0.03 0.04 0.04 0.03 0.04 0.04 0.04 0.05 0.05 0.04 0.03 0.02 0.03 0.05 0.05 0.04 0.03 0.03 0.04 0.05 0.06 0.06 0.06 0.06
0.03 0.02 0.02 0.02 0.01 0.01 0.02 0.02 0.01 0.01 0.01 0.01 0.02 0.03 0.04 0.03 0.03 0.03 0.03 0.03 0.03 0.03 0.03 0.03 0.04 0.04 0.05 0.06 0.06 0.05 0.04 0.03 0.03 0.04 0.04 0.03 0.03 0.03 0.04 0.04 0.04 0.03 0.03
0.03 0.01 0.01 0.01 0.02 0.02 0.01 0.01 0.01 0.01 0.01 0.01 0.02 0.02 0.03 0.04 0.04 0.03 0.03 0.03 0.03 0.03 0.03 0.03 0.04 0.03 0.03 0.03 0.05 0.05 0.05 0.06 0.05 0.06 0.06 0.05 0.05 0.05 0.04 0.03 0.02 0.02 0.01
0.04 0.02 0.01 0.01 0.01 0.02 0.01 0.01 0.01 0.01 0.01 0.01 0.01 0.02 0.02 0.02 0.03 0.03 0.02 0.02 0.02 0.03 0.03 0.04 0.04 0.03 0.02 0.02 0.03 0.04 0.04 0.04 0.04 0.05 0.05 0.05 0.04 0.05 0.05 0.05 0.03 0.02 0.02
0.03 0.02 0.02 0.02 0.01 0.01 0.01 0.00 0.01 0.01 0.01 0.01 0.01 0.01 0.01 0.02 0.02 0.02 0.02 0.02 0.02 0.02 0.02 0.03 0.03 0.02 0.02 0.02 0.02 0.03 0.04 0.04 0.03 0.03 0.03 0.03 0.03 0.03 0.05 0.06 0.05 0.04 0.03
0.04 0.03 0.02 0.02 0.01 0.01 0.01 0.00 0.00 0.01 0.01 0.01 0.01 0.01 0.01 0.01 0.01 0.01 0.02 0.02 0.02 0.02 0.02 0.03 0.02 0.01 0.01 0.01 0.01 0.03 0.04 0.04 0.04 0.03 0.02 0.02 0.02 0.02 0.02 0.02 0.03 0.03 0.03
0.04 0.03 0.02 0.02 0.02 0.01 0.00 0.00 0.00 0.01 0.01 0.01 0.02 0.02 0.02 0.01 0.02 0.02 0.02 0.02 0.02 0.01 0.02 0.03 0.02 0.02 0.02 0.01 0.02 0.02 0.03 0.03 0.03 0.03 0.02 0.02 0.01 0.01 0.01 0.01 0.02 0.03 0.03
0.05 0.04 0.03 0.02 0.02 0.01 0.00 0.00 0.00 0.01 0.02 0.02 0.02 0.02 0.03 0.03 0.02 0.02 0.02 0.02 0.02 0.03 0.04 0.04 0.03 0.02 0.02 0.02 0.02 0.02 0.03 0.03 0.03 0.03 0.02 0.02 0.02 0.02 0.01 0.01 0.01 0.01 0.02
0.05 0.04 0.03 0.02 0.03 0.02 0.00 0.00 0.00 0.02 0.03 0.02 0.02 0.01 0.02 0.03 0.02 0.02 0.03 0.03 0.03 0.04 0.03 0.04 0.03 0.02 0.02 0.03 0.03 0.03 0.03 0.03 0.03 0.03 0.02 0.02 0.02 0.02 0.01 0.01 0.01 0.01 0.01
0.05 0.04 0.02 0.02 0.03 0.02 0.00 0.00 0.00 0.02 0.03 0.02 0.02 0.02 0.01 0.01 0.02 0.02 0.03 0.04 0.04 0.04 0.03 0.02 0.03 0.03 0.02 0.03 0.03 0.03 0.03 0.04 0.04 0.03 0.01 0.01 0.02 0.02 0.02 0.01 0.01 0.01 0.00
MSLP
1016.52 1016.61 1016.65 1016.68 1016.71 1016.77 1016.86 1016.97 1017.09 1017.20 1017.28 1017.33 1017.34 1017.33 1017.32 1017.32 1017.37 1017.45 1017.57 1017.71 1017.86 1018.00 1018.14 1018.26 1018.38 1018.51 1018.66 1018.83 1019.00 1019.18 1019.33 1019.45 1019.54 1019.59 1019.61 1019.63 1019.67 1019.73 1019.82 1019.93 1020.06 1020.20 1020.32
1016.50 1016.54 1016.53 1016.51 1016.50 1016.53 1016.61 1016.73 1016.89 1017.06 1017.22 1017.35 1017.44 1017.49 1017.52 1017.53 1017.54 1017.56 1017.60 1017.65 1017.72 1017.81 1017.91 1018.02 1018.16 1018.32 1018.50 1018.69 1018.87 1019.03 1019.16 1019.24 1019.27 1019.26 1019.24 1019.22 1019.22 1019.26 1019.34 1019.45 1019.58 1019.72 1019.85
1016.50 1016.49 1016.44 1016.37 1016.33 1016.34 1016.42 1016.57 1016.77 1017.01 1017.25 1017.47 1017.65 1017.77 1017.84 1017.86 1017.85 1017.82 1017.78 1017.75 1017.74 1017.77 1017.83 1017.93 1018.07 1018.25 1018.44 1018.64 1018.82 1018.96 1019.05 1019.08 1019.05 1018.98 1018.90 1018.83 1018.78 1018.79 1018.84 1018.94 1019.06 1019.19 1019.32
1016.48 1016.43 1016.33 1016.24 1016.17 1016.17 1016.24 1016.41 1016.66 1016.96 1017.29 1017.60 1017.87 1018.07 1018.20 1018.25 1018.24 1018.17 1018.09 1017.99 1017.93 1017.89 1017.91 1017.99 1018.12 1018.30 1018.49 1018.68 1018.84 1018.95 1018.98 1018.95 1018.85 1018.71 1018.56 1018.42 1018.32 1018.28 1018.29 1018.36 1018.46 1018.58 1018.70
1016.39 1016.30 1016.18 1016.06 1015.97 1015.95 1016.03 1016.21 1016.49 1016.84 1017.24 1017.64 1018.00 1018.29 1018.50 1018.61 1018.62 1018.57 1018.46 1018.34 1018.23 1018.16 1018.14 1018.18 1018.28 1018.43 1018.60 1018.76 1018.88 1018.94 1018.91 1018.81 1018.64 1018.42 1018.20 1017.98 1017.82 1017.71 1017.67 1017.69 1017.76 1017.86 1017.97
1016.20 1016.09 1015.94 1015.80 1015.70 1015.67 1015.74 1015.92 1016.21 1016.60 1017.05 1017.53 1017.97 1018.36 1018.66 1018.85 1018.93 1018.91 1018.83 1018.71 1018.58 1018.48 1018.43 1018.43 1018.50 1018.60 1018.72 1018.83 1018.90 1018.89 1018.80 1018.63 1018.39 1018.09 1017.78 1017.49 1017.24 1017.05 1016.95 1016.91 1016.93 1017.00 1017.09
1015.92 1015.79 1015.63 1015.48 1015.36 1015.32 1015.37 1015.53 1015.83 1016.23 1016.72 1017.24 1017.76 1018.24 1018.63 1018.91 1019.08 1019.14 1019.11 1019.02 1018.90 1018.79 1018.71 1018.67 1018.69 1018.74 1018.80 1018.85 1018.86 1018.79 1018.64 1018.40 1018.08 1017.71 1017.32 1016.94 1016.60 1016.33 1016.14 1016.03 1016.00 1016.03 1016.11
1015.58 1015.44 1015.28 1015.12 1014.99 1014.92 1014.95 1015.10 1015.37 1015.77 1016.27 1016.82 1017.40 1017.94 1018.42 1018.79 1019.05 1019.19 1019.22 1019.17 1019.09 1018.98 1018.89 1018.82 1018.80 1018.80 1018.81 1018.80 1018.75 1018.63 1018.43 1018.13 1017.76 1017.31 1016.84 1016.38 1015.94 1015.58 1015.30 1015.11 1015.02 1015.02 1015.09
1015.24 1015.10 1014.93 1014.77 1014.63 1014.54 1014.55 1014.67 1014.93 1015.30 1015.79 1016.35 1016.95 1017.53 1018.06 1018.50 1018.82 1019.03 1019.13 1019.14 1019.08 1019.00 1018.91 1018.83 1018.79 1018.76 1018.73 1018.69 1018.61 1018.46 1018.22 1017.88 1017.46 1016.96 1016.42 1015.88 1015.36 1014.89 1014.52 1014.26 1014.11 1014.08 1014.15
1014.98 1014.82 1014.65 1014.48 1014.34 1014.25 1014.25 1014.35 1014.58 1014.93 1015.39 1015.93 1016.51 1017.09 1017.63 1018.09 1018.45 1018.69 1018.83 1018.88 1018.86 1018.81 1018.75 1018.69 1018.65 1018.62 1018.60 1018.56 1018.47 1018.31 1018.06 1017.72 1017.27 1016.74 1016.15 1015.54 1014.94 1014.40 1013.94 1013.61 1013.41 1013.35 1013.43
1014.83 1014.65 1014.48 1014.31 1014.17 1014.09 1014.09 1014.19 1014.40 1014.72 1015.15 1015.64 1016.18 1016.71 1017.21 1017.64 1017.98 1018.23 1018.38 1018.45 1018.47 1018.45 1018.43 1018.42 1018.42 1018.43 1018.45 1018.44 1018.38 1018.25 1018.03 1017.70 1017.25 1016.71 1016.09 1015.44 1014.79 1014.19 1013.67 1013.28 1013.04 1012.97 1013.05
1014.82 1014.62 1014.43 1014.27 1014.14 1014.08 1014.10 1014.21 1014.42 1014.72 1015.10 1015.53 1015.99 1016.44 1016.86 1017.21 1017.49 1017.70 1017.83 1017.91 1017.95 1017.98 1018.02 1018.07 1018.15 1018.24 1018.33 1018.39 1018.40 1018.33 1018.15 1017.86 1017.44 1016.92 1016.31 1015.64 1014.97 1014.34 1013.79 1013.37 1013.11 1013.02 1013.12
1014.94 1014.71 1014.51 1014.35 1014.25 1014.22 1014.27 1014.40 1014.62 1014.91 1015.25 1015.61 1015.98 1016.32 1016.62 1016.87 1017.05 1017.18 1017.26 1017.33 1017.40 1017.48 1017.59 1017.73 1017.90 1018.09 1018.28 1018.43 1018.53 1018.53 1018.43 1018.20 1017.84 1017.36 1016.79 1016.15 1015.49 1014.87 1014.32 1013.90 1013.64 1013.55 1013.65
1015.17 1014.90 1014.69 1014.54 1014.46 1014.47 1014.56 1014.73 1014.97 1015.25 1015.55 1015.85 1016.11 1016.34 1016.51 1016.62 1016.69 1016.73 1016.76 1016.81 1016.89 1017.02 1017.20 1017.44 1017.72 1018.02 1018.31 1018.56 1018.75 1018.85 1018.83 1018.67 1018.39 1017.98 1017.47 1016.89 1016.29 1015.72 1015.21 1014.82 1014.57 1014.50 1014.59
1015.48 1015.18 1014.96 1014.81 1014.76 1014.81 1014.94 1015.14 1015.39 1015.67 1015.93 1016.17 1016.34 1016.45 1016.50 1016.49 1016.45 1016.40 1016.38 1016.40 1016.49 1016.67 1016.92 1017.25 1017.62 1018.02 1018.40 1018.75 1019.02 1019.20 1019.26 1019.18 1018.98 1018.66 1018.24 1017.76 1017.25 1016.76 1016.33 1016.00 1015.79 1015.73 1015.83
1015.85 1015.54 1015.30 1015.17 1015.13 1015.20 1015.35 1015.58 1015.84 1016.10 1016.33 1016.51 1016.60 1016.62 1016.56 1016.45 1016.32 1016.21 1016.14 1016.15 1016.25 1016.46 1016.77 1017.16 1017.60 1018.07 1018.52 1018.93 1019.27 1019.50 1019.62 1019.62 1019.50 1019.28 1018.97 1018.60 1018.21 1017.84 1017.51 1017.26 1017.11 1017.08 1017.17
1016.27 1015.96 1015.72 1015.59 1015.55 1015.62 1015.78 1016.00 1016.25 1016.49 1016.69 1016.81 1016.84 1016.79 1016.66 1016.49 1016.30 1016.14 1016.05 1016.06 1016.17 1016.40 1016.74 1017.16 1017.64 1018.14 1018.62 1019.05 1019.41 1019.67 1019.83 1019.89 1019.84 1019.71 1019.51 1019.27 1019.01 1018.76 1018.55 1018.40 1018.33 1018.33 1018.43
1016.74 1016.44 1016.21 1016.07 1016.03 1016.08 1016.21 1016.40 1016.61 1016.80 1016.95 1017.03 1017.02 1016.92 1016.76 1016.56 1016.35 1016.19 1016.09 1016.10 1016.22 1016.46 1016.80 1017.23 1017.69 1018.18 1018.64 1019.05 1019.39 1019.65 1019.82 1019.91 1019.92 1019.87 1019.77 1019.65 1019.52 1019.40 1019.31 1019.26 1019.27 1019.32 1019.43
1017.25 1016.98 1016.77 1016.62 1016.55 1016.56 1016.64 1016.76 1016.90 1017.03 1017.13 1017.15 1017.11 1017.00 1016.83 1016.63 1016.44 1016.29 1016.22 1016.24 1016.37 1016.60 1016.92 1017.30 1017.73 1018.15 1018.56 1018.91 1019.21 1019.44 1019.60 1019.69 1019.74 1019.74 1019.73 1019.70 1019.68 1019.67 1019.69 1019.74 1019.82 1019.93 1020.07
1017.78 1017.56 1017.36 1017.21 1017.10 1017.05 1017.05 1017.08 1017.14 1017.19 1017.21 1017.19 1017.12 1017.01 1016.86 1016.69 1016.54 1016.43 1016.38 1016.42 1016.55 1016.76 1017.04 1017.36 1017.71 1018.06 1018.38 1018.66 1018.89 1019.07 1019.19 1019.27 1019.33 1019.36 1019.40 1019.44 1019.49 1019.57 1019.67 1019.80 1019.95 1020.12 1020.30
1018.29 1018.12 1017.95 1017.79 1017.64 1017.52 1017.43 1017.37 1017.32 1017.28 1017.23 1017.17 1017.08 1016.97 1016.84 1016.72 1016.62 1016.56 1016.55 1016.61 1016.73 1016.91 1017.13 1017.39 1017.65 1017.91 1018.14 1018.33 1018.49 1018.60 1018.68 1018.74 1018.78 1018.82 1018.87 1018.94 1019.03 1019.16 1019.31 1019.50 1019.70 1019.92 1020.13
1018.74 1018.62 1018.47 1018.30 1018.12 1017.94 1017.77 1017.61 1017.47 1017.34 1017.22 1017.11 1017.00 1016.89 1016.80 1016.73 1016.68 1016.66 1016.69 1016.76 1016.87 1017.02 1017.19 1017.37 1017.56 1017.73 1017.87 1017.99 1018.08 1018.13 1018.16 1018.18 1018.20 1018.22 1018.25 1018.32 1018.41 1018.54 1018.71 1018.92 1019.15 1019.41 1019.66
1019.06 1018.99 1018.87 1018.71 1018.51 1018.28 1018.05 1017.81 1017.59 1017.38 1017.20 1017.05 1016.92 1016.82 1016.75 1016.71 1016.70 1016.73 1016.78 1016.86 1016.96 1017.08 1017.20 1017.33 1017.45 1017.55 1017.63 1017.69 1017.73 1017.74 1017.73 1017.71 1017.69 1017.67 1017.66 1017.69 1017.75 1017.85 1018.00 1018.19 1018.43 1018.70 1018.98
1019.24 1019.21 1019.12 1018.97 1018.77 1018.53 1018.26 1017.98 1017.70 1017.45 1017.22 1017.03 1016.88 1016.78 1016.72 1016.70 1016.72 1016.76 1016.83 1016.91 1017.00 1017.09 1017.19 1017.27 1017.35 1017.41 1017.46 1017.48 1017.49 1017.47 1017.44 1017.38 1017.32 1017.25 1017.19 1017.15 1017.14 1017.19 1017.28 1017.44 1017.66 1017.92 1018.20
1019.26 1019.26 1019.21 1019.09 1018.92 1018.70 1018.43 1018.14 1017.84 1017.56 1017.30 1017.09 1016.92 1016.80 1016.74 1016.72 1016.73 1016.78 1016.84 1016.91 1016.99 1017.07 1017.14 1017.21 1017.27 1017.32 1017.36 1017.38 1017.37 1017.35 1017.29 1017.21 1017.11 1016.98 1016.86 1016.75 1016.67 1016.63 1016.66 1016.75 1016.92 1017.14 1017.41
1019.18 1019.21 1019.19 1019.13 1019.00 1018.82 1018.59 1018.33 1018.04 1017.75 1017.48 1017.24 1017.04 1016.90 1016.81 1016.76 1016.75 1016.78 1016.83 1016.88 1016.95 1017.02 1017.09 1017.15 1017.21 1017.27 1017.32 1017.35 1017.36 1017.33 1017.27 1017.17 1017.03 1016.86 1016.67 1016.48 1016.32 1016.20 1016.15 1016.17 1016.27 1016.44 1016.66
Thickness
5718 5717 5715 5713 5713 5712 5711 5711 5711 5711 5710 5711 5712 5714 5714 5715 5715 5715 5715 5712 5710 5710 5709 5708 5707 5706 5705 5704 5702 5701 5701 5700 5699 5699 5698 5697 5695 5695 5694 5693 5693 5692 5692
5713 5712 5711 5709 5709 5708 5708 5707 5707 5706 5706 5707 5707 5708 5708 5710 5709 5709 5711 5710 5708 5707 5706 5706 5705 5705 5704 5703 5702 5700 5700 5699 5698 5698 5697 5696 5695 5693 5693 5692 5691 5691 5690
5707 5706 5706 5705 5705 5704 5703 5703 5702 5702 5702 5703 5703 5703 5703 5704 5704 5705 5706 5707 5706 5705 5704 5703 5703 5703 5702 5701 5700 5699 5699 5698 5697 5697 5696 5695 5693 5692 5691 5690 5690 5689 5688
5701 5701 5701 5701 5699 5699 5700 5699 5699 5698 5697 5697 5698 5699 5700 5700 5700 5701 5702 5702 5703 5704 5702 5701 5700 5700 5700 5699 5699 5698 5698 5697 5696 5695 5694 5693 5692 5691 5690 5689 5688 5688 5687
5696 5695 5696 5695 5694 5694 5694 5694 5694 5692 5691 5690 5691 5693 5694 5695 5696 5698 5698 5698 5699 5698 5699 5698 5697 5697 5697 5697 5697 5697 5696 5696 5695 5694 5693 5692 5692 5690 5689 5688 5687 5686 5685
5690 5689 5690 5688 5688 5688 5687 5686 5685 5685 5684 5685 5686 5688 5690 5692 5693 5693 5694 5695 5694 5694 5695 5695 5695 5694 5693 5694 5693 5694 5694 5694 5693 5692 5692 5691 5690 5689 5688 5686 5685 5684 5683
5684 5682 5683 5681 5680 5681 5680 5680 5680 5679 5679 5680 5679 5681 5684 5687 5688 5688 5689 5690 5690 5690 5690 5690 5691 5691 5691 5690 5689 5690 5690 5690 5690 5690 5690 5689 5688 5687 5685 5684 5683 5682 5680
5676 5677 5674 5675 5674 5673 5672 5673 5672 5671 5673 5673 5671 5671 5673 5676 5679 5683 5683 5684 5684 5684 5685 5685 5685 5685 5687 5688 5686 5685 5685 5686 5686 5687 5687 5687 5686 5684 5683 5682 5680 5679 5678
5668 5667 5667 5666 5665 5665 5665 5664 5664 5664 5665 5667 5667 5665 5665 5668 5670 5674 5676 5677 5677 5678 5679 5680 5680 5681 5681 5681 5682 5681 5681 5681 5682 5683 5683 5683 5683 5681 5680 5679 5678 5677 5675
5660 5659 5658 5657 5656 5657 5656 5657 5658 5657 5658 5659 5661 5661 5662 5664 5662 5664 5668 5669 5670 5671 5672 5673 5675 5674 5675 5676 5675 5676 5676 5676 5677 5679 5679 5680 5679 5678 5677 5676 5675 5674 5673
5652 5651 5650 5649 5648 5648 5647 5647 5648 5649 5651 5652 5653 5655 5656 5657 5659 5658 5659 5661 5662 5665 5666 5666 5668 5669 5670 5670 5671 5670 5670 5671 5672 5673 5674 5675 5675 5674 5673 5673 5672 5671 5670
5645 5643 5642 5641 5640 5640 5639 5639 5640 5642 5642 5643 5645 5648 5649 5651 5652 5653 5653 5654 5655 5657 5658 5660 5662 5663 5664 5664 5665 5664 5664 5665 5666 5667 5668 5669 5669 5670 5669 5669 5668 5668 5666
5638 5634 5634 5633 5632 5631 5631 5631 5632 5633 5634 5635 5637 5640 5642 5644 5646 5647 5647 5648 5648 5650 5651 5653 5655 5656 5657 5658 5658 5658 5658 5659 5660 5661 5662 5663 5663 5664 5664 5664 5663 5662 5661
5629 5626 5625 5624 5624 5623 5624 5624 5625 5626 5626 5627 5629 5631 5634 5637 5639 5640 5641 5641 5642 5644 5646 5647 5649 5649 5649 5650 5650 5651 5653 5652 5654 5654 5656 5656 5657 5657 5657 5657 5656 5655 5653
5620 5618 5617 5616 5616 5615 5615 5615 5617 5617 5618 5620 5622 5624 5626 5629 5631 5634 5635 5636 5636 5637 5640 5642 5642 5641 5641 5642 5642 5644 5645 5645 5646 5648 5649 5649 5649 5650 5649 5649 5648 5647 5645
5610 5609 5608 5608 5607 5607 5607 5607 5609 5609 5610 5611 5612 5613 5615 5620 5623 5625 5627 5630 5631 5632 5632 5634 5634 5634 5633 5634 5634 5636 5637 5637 5638 5639 5641 5642 5642 5641 5641 5640 5639 5638 5637
5601 5599 5599 5598 5598 5599 5599 5599 5601 5601 5602 5603 5604 5606 5607 5609 5613 5616 5619 5622 5623 5625 5624 5625 5626 5626 5625 5626 5627 5629 5630 5631 5632 5631 5632 5633 5633 5633 5633 5632 5631 5630 5629
5592 5591 5590 5590 5590 5590 5590 5591 5592 5593 5594 5595 5596 5598 5600 5602 5604 5607 5610 5612 5614 5616 5617 5616 5617 5618 5618 5619 5620 5622 5623 5625 5625 5623 5623 5624 5625 5624 5624 5624 5623 5622 5622
5584 5584 5582 5581 5581 5581 5582 5583 5584 5585 5586 5587 5589 5590 5592 5594 5596 5599 5601 5604 5606 5608 5609 5610 5611 5611 5612 5613 5613 5614 5616 5616 5618 5616 5616 5616 5616 5616 5616 5616 5615 5615 5614
5577 5575 5574 5574 5573 5574 5575 5576 5577 5577 5578 5580 5581 5582 5584 5586 5588 5590 5593 5595 5597 5599 5601 5602 5604 5605 5606 5606 5607 5609 5610 5611 5612 5612 5610 5609 5608 5608 5608 5608 5608 5607 5607
5570 5569 5568 5568 5567 5567 5566 5566 5568 5570 5571 5572 5574 5575 5576 5576 5576 5579 5583 5586 5588 5591 5594 5596 5598 5599 5600 5600 5602 5604 5605 5606 5606 5606 5606 5605 5604 5604 5602 5601 5601 5600 5600
5563 5562 5562 5561 5561 5560 5555 5554 5556 5561 5563 5565 5566 5567 5569 5570 5570 5570 5572 5574 5576 5581 5585 5588 5591 5592 5594 5596 5596 5598 5600 5601 5600 5600 5600 5600 5601 5600 5599 5599 5596 5594 5593
5557 5556 5556 5555 5554 5551 5547 5547 5548 5552 5556 5557 5558 5559 5563 5563 5564 5567 5567 5568 5570 5571 5573 5578 5582 5585 5587 5590 5590 5592 5593 5594 5595 5595 5594 5595 5595 5595 5595 5594 5591 5589 5588
5552 5550 5550 5549 5548 5545 5541 5541 5542 5547 5550 5550 5551 5552 5554 5555 5557 5558 5562 5565 5567 5568 5569 5572 5575 5577 5580 5581 5583 5584 5585 5585 5587 5588 5589 5589 5590 5590 5591 5589 5586 5585 5584
5547 5547 5547 5546 5544 5541 5537 5537 5536 5544 5546 5546 5546 5546 5547 5548 5546 5548 5553 5558 5560 5562 5562 5564 5565 5567 5569 5571 5573 5576 5579 5581 5582 5584 5584 5586 5587 5586 5587 5587 5584 5581 5580
5546 5545 5544 5543 5542 5540 5535 5533 5532 5541 5542 5543 5543 5542 5539 5540 5539 5541 5547 5550 5553 5556 5559 5560 5560 5561 5564 5565 5566 5569 5573 5576 5579 5580 5581 5582 5583 5584 5584 5585 5584 5580 5578